<?xml version="1.0" encoding="UTF-8"?><gpx creator="Wikiloc - https://www.wikiloc.com" version="1.1" xmlns="http://www.topografix.com/GPX/1/1" xmlns:xsi="http://www.w3.org/2001/XMLSchema-instance" xsi:schemaLocation="http://www.topografix.com/GPX/1/1 http://www.topografix.com/GPX/1/1/gpx.xsd"><metadata><name>Wikiloc - Paseos Rurales - Desfiladero del Ruecas</name><author><name>Red Extremeña de Desarrollo Rural (REDEX)</name><link href="https://www.wikiloc.com/wikiloc/user.do?id=2006209"><text>Red Extremeña de Desarrollo Rural (REDEX) on Wikiloc</text></link></author><link href="https://www.wikiloc.com/walking-trails/paseos-rurales-desfiladero-del-ruecas-18332640"><text>Paseos Rurales - Desfiladero del Ruecas on Wikiloc</text></link><time>2017-06-22T13:55:54Z</time></metadata><trk><name>Paseos Rurales - Desfiladero del Ruecas</name><cmt></cmt><desc></desc><trkseg><trkpt lat="39.393048" lon="-5.390395"><ele>621.634</ele><time>1970-01-01T00:00:00Z</time></trkpt><trkpt lat="39.392007" lon="-5.389820"><ele>628.355</ele><time>1970-01-01T00:00:00Z</time></trkpt><trkpt lat="39.391935" lon="-5.389994"><ele>628.310</ele><time>1970-01-01T00:00:00Z</time></trkpt><trkpt lat="39.391872" lon="-5.390001"><ele>628.408</ele><time>1970-01-01T00:00:00Z</time></trkpt><trkpt lat="39.391825" lon="-5.390055"><ele>628.284</ele><time>1970-01-01T00:00:00Z</time></trkpt><trkpt lat="39.391800" lon="-5.390106"><ele>626.861</ele><time>1970-01-01T00:00:00Z</time></trkpt><trkpt lat="39.391748" lon="-5.390124"><ele>626.066</ele><time>1970-01-01T00:00:00Z</time></trkpt><trkpt lat="39.391681" lon="-5.390107"><ele>627.116</ele><time>1970-01-01T00:00:00Z</time></trkpt><trkpt lat="39.391622" lon="-5.390112"><ele>626.685</ele><time>1970-01-01T00:00:00Z</time></trkpt><trkpt lat="39.391553" lon="-5.390130"><ele>624.919</ele><time>1970-01-01T00:00:00Z</time></trkpt><trkpt lat="39.391484" lon="-5.390157"><ele>622.977</ele><time>1970-01-01T00:00:00Z</time></trkpt><trkpt lat="39.391422" lon="-5.390181"><ele>621.023</ele><time>1970-01-01T00:00:00Z</time></trkpt><trkpt lat="39.391369" lon="-5.390183"><ele>620.822</ele><time>1970-01-01T00:00:00Z</time></trkpt><trkpt lat="39.391302" lon="-5.390205"><ele>619.662</ele><time>1970-01-01T00:00:00Z</time></trkpt><trkpt lat="39.391264" lon="-5.390237"><ele>618.508</ele><time>1970-01-01T00:00:00Z</time></trkpt><trkpt lat="39.391218" lon="-5.390259"><ele>617.808</ele><time>1970-01-01T00:00:00Z</time></trkpt><trkpt lat="39.391129" lon="-5.390289"><ele>616.423</ele><time>1970-01-01T00:00:00Z</time></trkpt><trkpt lat="39.390965" lon="-5.390333"><ele>614.540</ele><time>1970-01-01T00:00:00Z</time></trkpt><trkpt lat="39.390914" lon="-5.390324"><ele>614.115</ele><time>1970-01-01T00:00:00Z</time></trkpt><trkpt lat="39.390851" lon="-5.390364"><ele>612.345</ele><time>1970-01-01T00:00:00Z</time></trkpt><trkpt lat="39.390800" lon="-5.390361"><ele>611.634</ele><time>1970-01-01T00:00:00Z</time></trkpt><trkpt lat="39.390770" lon="-5.390365"><ele>611.138</ele><time>1970-01-01T00:00:00Z</time></trkpt><trkpt lat="39.390698" lon="-5.390372"><ele>609.476</ele><time>1970-01-01T00:00:00Z</time></trkpt><trkpt lat="39.390594" lon="-5.390396"><ele>606.662</ele><time>1970-01-01T00:00:00Z</time></trkpt><trkpt lat="39.390560" lon="-5.390369"><ele>606.338</ele><time>1970-01-01T00:00:00Z</time></trkpt><trkpt lat="39.390509" lon="-5.390351"><ele>604.970</ele><time>1970-01-01T00:00:00Z</time></trkpt><trkpt lat="39.390478" lon="-5.390315"><ele>604.917</ele><time>1970-01-01T00:00:00Z</time></trkpt><trkpt lat="39.390436" lon="-5.390304"><ele>603.708</ele><time>1970-01-01T00:00:00Z</time></trkpt><trkpt lat="39.390365" lon="-5.390246"><ele>602.864</ele><time>1970-01-01T00:00:00Z</time></trkpt><trkpt lat="39.390311" lon="-5.390232"><ele>601.711</ele><time>1970-01-01T00:00:00Z</time></trkpt><trkpt lat="39.390201" lon="-5.390173"><ele>600.586</ele><time>1970-01-01T00:00:00Z</time></trkpt><trkpt lat="39.390125" lon="-5.390089"><ele>600.296</ele><time>1970-01-01T00:00:00Z</time></trkpt><trkpt lat="39.390079" lon="-5.390080"><ele>599.215</ele><time>1970-01-01T00:00:00Z</time></trkpt><trkpt lat="39.390016" lon="-5.390013"><ele>598.579</ele><time>1970-01-01T00:00:00Z</time></trkpt><trkpt lat="39.389990" lon="-5.390022"><ele>597.517</ele><time>1970-01-01T00:00:00Z</time></trkpt><trkpt lat="39.389966" lon="-5.390034"><ele>596.593</ele><time>1970-01-01T00:00:00Z</time></trkpt><trkpt lat="39.389890" lon="-5.390009"><ele>594.815</ele><time>1970-01-01T00:00:00Z</time></trkpt><trkpt lat="39.389831" lon="-5.389979"><ele>593.965</ele><time>1970-01-01T00:00:00Z</time></trkpt><trkpt lat="39.389770" lon="-5.389953"><ele>592.611</ele><time>1970-01-01T00:00:00Z</time></trkpt><trkpt lat="39.389687" lon="-5.389901"><ele>591.708</ele><time>1970-01-01T00:00:00Z</time></trkpt><trkpt lat="39.389585" lon="-5.389888"><ele>589.182</ele><time>1970-01-01T00:00:00Z</time></trkpt><trkpt lat="39.389484" lon="-5.389868"><ele>587.669</ele><time>1970-01-01T00:00:00Z</time></trkpt><trkpt lat="39.389345" lon="-5.389858"><ele>583.994</ele><time>1970-01-01T00:00:00Z</time></trkpt><trkpt lat="39.389271" lon="-5.389828"><ele>581.954</ele><time>1970-01-01T00:00:00Z</time></trkpt><trkpt lat="39.389222" lon="-5.389787"><ele>582.173</ele><time>1970-01-01T00:00:00Z</time></trkpt><trkpt lat="39.389180" lon="-5.389762"><ele>581.727</ele><time>1970-01-01T00:00:00Z</time></trkpt><trkpt lat="39.389096" lon="-5.389715"><ele>580.335</ele><time>1970-01-01T00:00:00Z</time></trkpt><trkpt lat="39.389035" lon="-5.389689"><ele>579.811</ele><time>1970-01-01T00:00:00Z</time></trkpt><trkpt lat="39.388982" lon="-5.389630"><ele>580.675</ele><time>1970-01-01T00:00:00Z</time></trkpt><trkpt lat="39.388893" lon="-5.389592"><ele>580.428</ele><time>1970-01-01T00:00:00Z</time></trkpt><trkpt lat="39.388848" lon="-5.389629"><ele>578.320</ele><time>1970-01-01T00:00:00Z</time></trkpt><trkpt lat="39.388998" lon="-5.389820"><ele>571.308</ele><time>1970-01-01T00:00:00Z</time></trkpt><trkpt lat="39.388906" lon="-5.389861"><ele>567.618</ele><time>1970-01-01T00:00:00Z</time></trkpt><trkpt lat="39.388799" lon="-5.390128"><ele>567.625</ele><time>1970-01-01T00:00:00Z</time></trkpt><trkpt lat="39.388841" lon="-5.390159"><ele>568.810</ele><time>1970-01-01T00:00:00Z</time></trkpt><trkpt lat="39.389042" lon="-5.390247"><ele>569.010</ele><time>1970-01-01T00:00:00Z</time></trkpt><trkpt lat="39.389204" lon="-5.390351"><ele>569.829</ele><time>1970-01-01T00:00:00Z</time></trkpt><trkpt lat="39.389363" lon="-5.390481"><ele>569.583</ele><time>1970-01-01T00:00:00Z</time></trkpt><trkpt lat="39.389535" lon="-5.390644"><ele>569.181</ele><time>1970-01-01T00:00:00Z</time></trkpt><trkpt lat="39.389669" lon="-5.390847"><ele>572.677</ele><time>1970-01-01T00:00:00Z</time></trkpt><trkpt lat="39.389806" lon="-5.391020"><ele>574.177</ele><time>1970-01-01T00:00:00Z</time></trkpt><trkpt lat="39.389939" lon="-5.391249"><ele>576.661</ele><time>1970-01-01T00:00:00Z</time></trkpt><trkpt lat="39.389980" lon="-5.391323"><ele>577.427</ele><time>1970-01-01T00:00:00Z</time></trkpt><trkpt lat="39.389968" lon="-5.391392"><ele>579.508</ele><time>1970-01-01T00:00:00Z</time></trkpt><trkpt lat="39.389933" lon="-5.391414"><ele>580.318</ele><time>1970-01-01T00:00:00Z</time></trkpt><trkpt lat="39.389933" lon="-5.391414"><ele>580.325</ele><time>1970-01-01T00:00:00Z</time></trkpt><trkpt lat="39.390010" lon="-5.391573"><ele>579.030</ele><time>1970-01-01T00:00:00Z</time></trkpt><trkpt lat="39.390118" lon="-5.391770"><ele>579.860</ele><time>1970-01-01T00:00:00Z</time></trkpt><trkpt lat="39.390303" lon="-5.391918"><ele>578.259</ele><time>1970-01-01T00:00:00Z</time></trkpt><trkpt lat="39.390557" lon="-5.391985"><ele>575.713</ele><time>1970-01-01T00:00:00Z</time></trkpt><trkpt lat="39.390863" lon="-5.391940"><ele>573.911</ele><time>1970-01-01T00:00:00Z</time></trkpt><trkpt lat="39.391084" lon="-5.391859"><ele>574.497</ele><time>1970-01-01T00:00:00Z</time></trkpt><trkpt lat="39.391174" lon="-5.391773"><ele>574.764</ele><time>1970-01-01T00:00:00Z</time></trkpt><trkpt lat="39.391167" lon="-5.391637"><ele>572.506</ele><time>1970-01-01T00:00:00Z</time></trkpt><trkpt lat="39.391105" lon="-5.391764"><ele>573.516</ele><time>1970-01-01T00:00:00Z</time></trkpt><trkpt lat="39.390995" lon="-5.391782"><ele>571.508</ele><time>1970-01-01T00:00:00Z</time></trkpt><trkpt lat="39.390822" lon="-5.391730"><ele>570.777</ele><time>1970-01-01T00:00:00Z</time></trkpt><trkpt lat="39.390589" lon="-5.392574"><ele>614.474</ele><time>1970-01-01T00:00:00Z</time></trkpt><trkpt lat="39.390470" lon="-5.392288"><ele>594.369</ele><time>1970-01-01T00:00:00Z</time></trkpt><trkpt lat="39.390299" lon="-5.392103"><ele>587.599</ele><time>1970-01-01T00:00:00Z</time></trkpt><trkpt lat="39.390078" lon="-5.391886"><ele>584.528</ele><time>1970-01-01T00:00:00Z</time></trkpt><trkpt lat="39.389972" lon="-5.391676"><ele>582.612</ele><time>1970-01-01T00:00:00Z</time></trkpt><trkpt lat="39.389933" lon="-5.391414"><ele>580.370</ele><time>1970-01-01T00:00:00Z</time></trkpt><trkpt lat="39.389832" lon="-5.391241"><ele>579.826</ele><time>1970-01-01T00:00:00Z</time></trkpt><trkpt lat="39.389602" lon="-5.390963"><ele>579.474</ele><time>1970-01-01T00:00:00Z</time></trkpt><trkpt lat="39.389364" lon="-5.390731"><ele>579.056</ele><time>1970-01-01T00:00:00Z</time></trkpt><trkpt lat="39.389066" lon="-5.390558"><ele>580.221</ele><time>1970-01-01T00:00:00Z</time></trkpt><trkpt lat="39.388686" lon="-5.390357"><ele>580.608</ele><time>1970-01-01T00:00:00Z</time></trkpt><trkpt lat="39.388461" lon="-5.390294"><ele>583.068</ele><time>1970-01-01T00:00:00Z</time></trkpt><trkpt lat="39.388188" lon="-5.390125"><ele>583.485</ele><time>1970-01-01T00:00:00Z</time></trkpt><trkpt lat="39.387970" lon="-5.389857"><ele>582.360</ele><time>1970-01-01T00:00:00Z</time></trkpt><trkpt lat="39.387732" lon="-5.389615"><ele>582.580</ele><time>1970-01-01T00:00:00Z</time></trkpt><trkpt lat="39.387467" lon="-5.389419"><ele>581.469</ele><time>1970-01-01T00:00:00Z</time></trkpt><trkpt lat="39.387231" lon="-5.389297"><ele>579.353</ele><time>1970-01-01T00:00:00Z</time></trkpt><trkpt lat="39.386979" lon="-5.389199"><ele>575.911</ele><time>1970-01-01T00:00:00Z</time></trkpt><trkpt lat="39.386684" lon="-5.389079"><ele>572.197</ele><time>1970-01-01T00:00:00Z</time></trkpt><trkpt lat="39.386564" lon="-5.389084"><ele>570.261</ele><time>1970-01-01T00:00:00Z</time></trkpt><trkpt lat="39.386427" lon="-5.389162"><ele>567.721</ele><time>1970-01-01T00:00:00Z</time></trkpt><trkpt lat="39.386280" lon="-5.389234"><ele>566.113</ele><time>1970-01-01T00:00:00Z</time></trkpt><trkpt lat="39.386154" lon="-5.389346"><ele>565.108</ele><time>1970-01-01T00:00:00Z</time></trkpt><trkpt lat="39.386068" lon="-5.389365"><ele>564.947</ele><time>1970-01-01T00:00:00Z</time></trkpt><trkpt lat="39.385933" lon="-5.389317"><ele>565.454</ele><time>1970-01-01T00:00:00Z</time></trkpt><trkpt lat="39.385859" lon="-5.389324"><ele>566.779</ele><time>1970-01-01T00:00:00Z</time></trkpt><trkpt lat="39.385633" lon="-5.389507"><ele>570.359</ele><time>1970-01-01T00:00:00Z</time></trkpt><trkpt lat="39.385473" lon="-5.389753"><ele>572.678</ele><time>1970-01-01T00:00:00Z</time></trkpt><trkpt lat="39.385281" lon="-5.390094"><ele>576.152</ele><time>1970-01-01T00:00:00Z</time></trkpt><trkpt lat="39.385132" lon="-5.390282"><ele>578.470</ele><time>1970-01-01T00:00:00Z</time></trkpt><trkpt lat="39.384954" lon="-5.390390"><ele>581.186</ele><time>1970-01-01T00:00:00Z</time></trkpt><trkpt lat="39.384807" lon="-5.390422"><ele>582.787</ele><time>1970-01-01T00:00:00Z</time></trkpt><trkpt lat="39.384583" lon="-5.390426"><ele>585.442</ele><time>1970-01-01T00:00:00Z</time></trkpt><trkpt lat="39.384400" lon="-5.390313"><ele>588.326</ele><time>1970-01-01T00:00:00Z</time></trkpt><trkpt lat="39.384281" lon="-5.390179"><ele>591.008</ele><time>1970-01-01T00:00:00Z</time></trkpt><trkpt lat="39.384005" lon="-5.390152"><ele>593.639</ele><time>1970-01-01T00:00:00Z</time></trkpt><trkpt lat="39.383887" lon="-5.390089"><ele>594.756</ele><time>1970-01-01T00:00:00Z</time></trkpt><trkpt lat="39.385859" lon="-5.389324"><ele>566.731</ele><time>1970-01-01T00:00:00Z</time></trkpt><trkpt lat="39.385980" lon="-5.389191"><ele>565.181</ele><time>1970-01-01T00:00:00Z</time></trkpt><trkpt lat="39.386178" lon="-5.388955"><ele>563.230</ele><time>1970-01-01T00:00:00Z</time></trkpt><trkpt lat="39.386257" lon="-5.388758"><ele>562.974</ele><time>1970-01-01T00:00:00Z</time></trkpt><trkpt lat="39.386314" lon="-5.388484"><ele>563.632</ele><time>1970-01-01T00:00:00Z</time></trkpt><trkpt lat="39.386284" lon="-5.387949"><ele>562.588</ele><time>1970-01-01T00:00:00Z</time></trkpt><trkpt lat="39.386282" lon="-5.387952"><ele>562.674</ele><time>1970-01-01T00:00:00Z</time></trkpt><trkpt lat="39.386242" lon="-5.388074"><ele>564.156</ele><time>1970-01-01T00:00:00Z</time></trkpt><trkpt lat="39.386274" lon="-5.388145"><ele>564.021</ele><time>1970-01-01T00:00:00Z</time></trkpt><trkpt lat="39.386327" lon="-5.388326"><ele>563.608</ele><time>1970-01-01T00:00:00Z</time></trkpt><trkpt lat="39.386314" lon="-5.388484"><ele>563.648</ele><time>1970-01-01T00:00:00Z</time></trkpt><trkpt lat="39.386354" lon="-5.388494"><ele>563.165</ele><time>1970-01-01T00:00:00Z</time></trkpt><trkpt lat="39.386404" lon="-5.388505"><ele>562.410</ele><time>1970-01-01T00:00:00Z</time></trkpt><trkpt lat="39.386552" lon="-5.388563"><ele>562.560</ele><time>1970-01-01T00:00:00Z</time></trkpt><trkpt lat="39.386341" lon="-5.389009"><ele>563.649</ele><time>1970-01-01T00:00:00Z</time></trkpt><trkpt lat="39.386280" lon="-5.389234"><ele>566.113</ele><time>1970-01-01T00:00:00Z</time></trkpt><trkpt lat="39.387647" lon="-5.389552"><ele>583.131</ele><time>1970-01-01T00:00:00Z</time></trkpt><trkpt lat="39.387723" lon="-5.389526"><ele>580.467</ele><time>1970-01-01T00:00:00Z</time></trkpt><trkpt lat="39.387804" lon="-5.389519"><ele>577.779</ele><time>1970-01-01T00:00:00Z</time></trkpt><trkpt lat="39.387851" lon="-5.389575"><ele>578.005</ele><time>1970-01-01T00:00:00Z</time></trkpt><trkpt lat="39.387989" lon="-5.389692"><ele>575.925</ele><time>1970-01-01T00:00:00Z</time></trkpt><trkpt lat="39.388169" lon="-5.389864"><ele>574.408</ele><time>1970-01-01T00:00:00Z</time></trkpt><trkpt lat="39.388260" lon="-5.389939"><ele>574.088</ele><time>1970-01-01T00:00:00Z</time></trkpt><trkpt lat="39.388397" lon="-5.390010"><ele>572.495</ele><time>1970-01-01T00:00:00Z</time></trkpt><trkpt lat="39.388470" lon="-5.390031"><ele>571.630</ele><time>1970-01-01T00:00:00Z</time></trkpt><trkpt lat="39.388632" lon="-5.390042"><ele>568.270</ele><time>1970-01-01T00:00:00Z</time></trkpt><trkpt lat="39.388710" lon="-5.390070"><ele>568.189</ele><time>1970-01-01T00:00:00Z</time></trkpt><trkpt lat="39.388799" lon="-5.390128"><ele>567.623</ele><time>1970-01-01T00:00:00Z</time></trkpt></trkseg></trk></gpx>